Athens, OH

5:47 AM EDT on June 25, 2017 (GMT -0400)
Ohio University

Weather History for KUNI - November, 2013

Change the Weather History Date:

Wednesday, November 6, 2013

  Actual Average (KPKB) Record (KPKB)
Temperature  
Mean Temperature 53 °F -  
Max Temperature 71 °F 54 °F 80 °F (1975)
Min Temperature 35 °F 38 °F 23 °F (1973)
Degree Days  
Heating Degree Days 12    
Growing Degree Days 3 (Base 50)    
Moisture  
Dew Point 46 °F    
Average Humidity 69    
Maximum Humidity 95    
Minimum Humidity 48    
Precipitation  
Precipitation 0.00 in - - ()
Sea Level Pressure  
Sea Level Pressure 30.11 in    
Wind  
Wind Speed 4 mph (SSW)    
Max Wind Speed 14 mph    
Max Gust Speed 28 mph    
Visibility 9 miles    
Events Rain    
Averages and records for this station are not official NWS values.
T = Trace of Precipitation, MM = Missing Value Source: NWS Daily Summary

Daily Weather History Graph

Daily Weather History Graph

Search for Another Location

Airport or City:

Trip Planner

Search our weather history database for the weather conditions in past years. The results will help you decide how hot, cold, wet, or windy it might be!

Date:

Astronomy

Nov. 06, 2013 Rise Set
Actual Time 7:02 AM EST 5:22 PM EST
Civil Twilight 6:34 AM EST 5:50 PM EST
Nautical Twilight 6:02 AM EST 6:22 PM EST
Astronomical Twilight 5:31 AM EST 6:53 PM EST
Moon 10:15 AM EST (11/6) 8:25 PM EST (11/6)
Length of Visible Light 11h 15m
Length of Day
10h 19m
Waxing Crescent, 13% of the Moon is Illuminated
Nov 6
Waxing Crescent
Nov 10
First Quarter
Nov 17
Full
Nov 25
Last Quarter
Dec 2
New

Hourly Weather History & Observations

Time (EST) Temp. Windchill Dew Point Humidity Pressure Visibility Wind Dir Wind Speed Gust Speed Precip Events Conditions
12:15 AM 38.5 °F - 35.6 °F 89% 30.29 in 10.0 mi Calm Calm - N/A   Clear
12:35 AM 38.5 °F - 34.2 °F 84% 30.29 in 10.0 mi Calm Calm - N/A   Clear
12:55 AM 38.8 °F - 33.3 °F 80% 30.28 in 10.0 mi Calm Calm - N/A   Clear
1:35 AM 37.6 °F - 34.5 °F 89% 30.27 in 10.0 mi Calm Calm - N/A   Clear
1:55 AM 36.7 °F - 34.0 °F 90% 30.26 in 10.0 mi Calm Calm - N/A   Clear
2:15 AM 36.5 °F - 34.0 °F 91% 30.26 in 10.0 mi Calm Calm - N/A   Clear
2:35 AM 36.7 °F - 34.2 °F 91% 30.25 in 10.0 mi Calm Calm - N/A   Clear
2:55 AM 36.1 °F - 34.0 °F 92% 30.25 in 10.0 mi Calm Calm - N/A   Clear
3:15 AM 36.5 °F - 33.8 °F 90% 30.24 in 10.0 mi Calm Calm - N/A   Clear
3:35 AM 35.8 °F - 33.3 °F 91% 30.24 in 10.0 mi Calm Calm - N/A   Clear
3:55 AM 36.0 °F - 33.4 °F 91% 30.23 in 10.0 mi Calm Calm - N/A   Clear
4:15 AM 36.0 °F - 33.6 °F 91% 30.23 in 10.0 mi Calm Calm - N/A   Scattered Clouds
4:35 AM 37.8 °F - 35.4 °F 91% 30.23 in 10.0 mi Calm Calm - N/A   Overcast
4:55 AM 39.0 °F - 35.8 °F 88% 30.23 in 10.0 mi Calm Calm - N/A   Overcast
5:15 AM 39.7 °F - 36.1 °F 87% 30.23 in 10.0 mi Calm Calm - N/A   Overcast
5:35 AM 40.6 °F - 36.9 °F 86% 30.23 in 10.0 mi Calm Calm - N/A   Overcast
5:55 AM 41.5 °F - 36.9 °F 83% 30.22 in 10.0 mi Calm Calm - N/A   Overcast
6:15 AM 42.3 °F - 38.3 °F 86% 30.21 in 10.0 mi Calm Calm - N/A   Overcast
6:35 AM 47.8 °F - 36.7 °F 65% 30.20 in 10.0 mi Calm Calm - N/A   Overcast
6:55 AM 49.1 °F - 37.0 °F 63% 30.19 in 10.0 mi SSE 4.6 mph - N/A   Overcast
7:15 AM 45.9 °F 44.6 °F 39.0 °F 77% 30.19 in 10.0 mi SSE 3.5 mph - N/A   Overcast
7:35 AM 50.0 °F - 39.0 °F 66% 30.20 in 10.0 mi SSW 4.6 mph - N/A   Overcast
7:55 AM 51.1 °F - 39.7 °F 65% 30.19 in 10.0 mi South 5.8 mph - N/A   Overcast
8:15 AM 52.3 °F - 40.5 °F 64% 30.19 in 10.0 mi South 6.9 mph - N/A   Overcast
8:35 AM 53.8 °F - 42.3 °F 65% 30.18 in 10.0 mi South 6.9 mph - N/A   Mostly Cloudy
8:55 AM 56.7 °F - 43.7 °F 62% 30.17 in 10.0 mi SSE 10.4 mph - N/A   Scattered Clouds
9:15 AM 58.8 °F - 44.8 °F 60% 30.17 in 10.0 mi South 8.1 mph 16.1 mph N/A   Clear
9:35 AM 60.3 °F - 45.5 °F 58% 30.17 in 10.0 mi South 10.4 mph 17.3 mph N/A   Scattered Clouds
9:55 AM 61.5 °F - 46.4 °F 58% 30.17 in 10.0 mi South 9.2 mph - N/A   Scattered Clouds
10:15 AM 63.9 °F - 46.8 °F 54% 30.17 in 10.0 mi South 13.8 mph 18.4 mph N/A   Mostly Cloudy
10:35 AM 62.2 °F - 47.1 °F 58% 30.17 in 10.0 mi South 8.1 mph 16.1 mph N/A   Overcast
10:55 AM 62.1 °F - 47.8 °F 60% 30.17 in 10.0 mi South 8.1 mph - N/A   Overcast
11:15 AM 63.0 °F - 48.2 °F 59% 30.16 in 10.0 mi South 8.1 mph - N/A   Overcast
11:35 AM 64.8 °F - 49.1 °F 57% 30.15 in 10.0 mi South 10.4 mph 17.3 mph N/A   Overcast
11:55 AM 65.3 °F - 49.3 °F 56% 30.13 in 10.0 mi South 10.4 mph 16.1 mph N/A   Overcast
12:15 PM 66.0 °F - 49.8 °F 56% 30.11 in 10.0 mi South 11.5 mph 16.1 mph N/A   Overcast
12:35 PM 67.3 °F - 49.8 °F 53% 30.11 in 10.0 mi South 10.4 mph 17.3 mph N/A   Mostly Cloudy
12:55 PM 68.0 °F - 49.8 °F 52% 30.09 in 10.0 mi SSW 10.4 mph 18.4 mph N/A   Overcast
1:15 PM 68.9 °F - 49.8 °F 51% 30.08 in 10.0 mi SSW 13.8 mph 21.9 mph N/A   Overcast
1:35 PM 69.8 °F - 50.0 °F 49% 30.07 in 10.0 mi SSW 13.8 mph 23.0 mph N/A   Mostly Cloudy
1:55 PM 70.2 °F - 50.2 °F 49% 30.06 in 10.0 mi SW 9.2 mph 18.4 mph N/A   Mostly Cloudy
2:15 PM 71.1 °F - 50.2 °F 48% 30.06 in 10.0 mi SSW 12.7 mph 27.6 mph N/A   Overcast
2:35 PM 70.7 °F - 50.4 °F 48% 30.04 in 10.0 mi SSW 10.4 mph 27.6 mph N/A   Overcast
2:55 PM 70.7 °F - 50.4 °F 48% 30.04 in 10.0 mi SSW 13.8 mph 20.7 mph N/A   Overcast
3:15 PM 70.9 °F - 50.5 °F 48% 30.03 in 10.0 mi SSW 10.4 mph 16.1 mph N/A   Overcast
3:35 PM 70.7 °F - 50.4 °F 48% 30.02 in 10.0 mi South 10.4 mph - N/A   Mostly Cloudy
3:55 PM 70.7 °F - 50.5 °F 49% 30.01 in 10.0 mi SSW 8.1 mph 16.1 mph N/A   Overcast
4:15 PM 70.7 °F - 50.2 °F 48% 30.01 in 10.0 mi SSW 9.2 mph 17.3 mph N/A   Overcast
4:35 PM 70.5 °F - 50.0 °F 48% 30.00 in 10.0 mi SSW 10.4 mph 16.1 mph N/A   Overcast
4:55 PM 70.2 °F - 50.4 °F 49% 30.00 in 10.0 mi SSW 4.6 mph - N/A   Overcast
5:15 PM 69.1 °F - 50.7 °F 52% 29.99 in 10.0 mi South 4.6 mph - N/A Rain Light Rain
5:35 PM 68.4 °F - 51.3 °F 54% 29.99 in 10.0 mi Calm Calm - N/A Rain Light Rain
5:55 PM 68.0 °F - 51.3 °F 55% 29.99 in 10.0 mi South 4.6 mph - N/A   Overcast
6:15 PM 68.0 °F - 50.9 °F 54% 29.99 in 10.0 mi South 4.6 mph - N/A   Overcast
6:35 PM 68.2 °F - 50.9 °F 54% 29.99 in 10.0 mi SW 6.9 mph - N/A   Overcast
6:55 PM 68.5 °F - 50.7 °F 53% 29.98 in 10.0 mi South 6.9 mph - N/A   Overcast
7:15 PM 68.0 °F - 50.5 °F 54% 29.98 in 10.0 mi SSW 4.6 mph - N/A   Overcast
7:35 PM 67.5 °F - 50.9 °F 55% 29.98 in 10.0 mi SW 4.6 mph - N/A   Overcast
7:55 PM 67.8 °F - 50.7 °F 54% 29.97 in 10.0 mi SSW 3.5 mph - N/A   Overcast
8:15 PM 67.1 °F - 51.4 °F 57% 29.98 in 10.0 mi WSW 5.8 mph - N/A   Overcast
8:35 PM 64.6 °F - 54.7 °F 70% 29.99 in 10.0 mi West 11.5 mph 20.7 mph N/A   Overcast
8:55 PM 62.2 °F - 56.5 °F 81% 30.00 in 7.0 mi West 11.5 mph - N/A Rain Rain
9:15 PM 60.4 °F - 57.7 °F 91% 30.00 in 3.0 mi West 12.7 mph 19.6 mph N/A Rain Light Rain
9:35 PM 60.1 °F - 57.7 °F 92% 29.99 in 4.0 mi SW 12.7 mph 20.7 mph N/A Rain Light Rain
9:55 PM 60.1 °F - 57.9 °F 93% 29.99 in 4.0 mi SW 11.5 mph 18.4 mph N/A Rain Rain
10:15 PM 60.1 °F - 57.7 °F 92% 29.98 in 7.0 mi SW 9.2 mph 19.6 mph N/A   Drizzle
10:35 PM 59.9 °F - 57.7 °F 93% 29.98 in 4.0 mi SW 8.1 mph - N/A   Heavy Drizzle
10:55 PM 59.9 °F - 58.1 °F 94% 29.96 in 5.0 mi SSW 8.1 mph - N/A Rain Rain
11:15 PM 59.9 °F - 58.1 °F 94% 29.96 in 4.0 mi SW 4.6 mph - N/A Rain Rain
11:35 PM 59.9 °F - 58.1 °F 94% 29.97 in 5.0 mi SSW 5.8 mph - N/A Rain Rain
11:55 PM 59.5 °F - 58.1 °F 95% 29.95 in 7.0 mi SSW 8.1 mph - N/A Rain Light Rain